Regional Weather Roundup
Issued by NWS

Home | Current Version | Previous Version | Text Only | Print | Product List | Glossary On
Versions: 1 2 3 4 5 6 7 8 9 10 11 12 13 14 15 16 17 18 19 20 21 22 23 24 25 26 27 28 29 30 31 32 33 34 35 36 37 38 39 40 41 42 43 44 45 46 47 48 49 50
000
ASUS45 KCYS 280910
RWRWY

WYOMING REGIONAL WEATHER ROUNDUP
NATIONAL WEATHER SERVICE CHEYENNE WY
200 AM MST FRI NOV 28 2014

NOTE:  "FAIR" INDICATES FEW OR NO CLOUDS BELOW 12,000 FEET
WITH NO SIGNIFICANT WEATHER AND/OR OBSTRUCTIONS TO VISIBILITY.

WYZ001-281000-
YELLOWSTONE NATIONAL PARK

CITY           SKY/WX    TMP DP  RH WIND       PRES   REMARKS
LK YELLOWSTONE   N/A     35  25  66 VRB3      30.03F
W YELLOWSTONE  NOT AVBL

$$
WYZ002>013-054>058-071-098>099-281000-
NORTHERN WYOMING

CITY           SKY/WX    TMP DP  RH WIND       PRES   REMARKS
JACKSON        CLOUDY    39  27  60 S10       30.04F WCI  32
CODY           CLOUDY    54  25  32 W20G33    29.77F
GREYBULL       MOCLDY    28  25  88 S6        29.84F WCI  22
WORLAND        CLOUDY    23  20  88 SW6       29.85F WCI  16
SHERIDAN       MOCLDY    44  27  51 N9        29.74R
BUFFALO        MOCLDY    56  21  25 VRB6G20   29.78F
GILLETTE       MOCLDY    46  28  49 SW24G32   29.75F
HULETT           N/A    N/A N/A N/A MISG        N/A
NEWCASTLE      FAIR      30  27  86 CALM      29.84F

$$
WYZ014>020-022>026-101>103-281000-
CENTRAL WYOMING

CITY           SKY/WX    TMP DP  RH WIND       PRES   REMARKS
BIG PINEY      MOCLDY   N/A N/A N/A E8        30.12F
PINEDALE       PTSUNNY   14  14 100 W6        30.13F WCI   5
DUBOIS         FAIR      37  21  52 NW14      30.03S WCI  29
LANDER         MOCLDY    56  14  19 NW28G39   29.90F
RIVERTON       MOCLDY    40  23  50 VRB3      29.95S
CASPER         CLEAR     42  23  46 SW17G29   29.94F
DOUGLAS        PTCLDY    51  22  31 W22       29.90F

$$
WYZ021-027>030-104>119-281000-
SOUTHERN WYOMING

CITY           SKY/WX    TMP DP  RH WIND       PRES   REMARKS
EVANSTON       PTCLDY    40  16  37 SW10      30.15F WCI  33
FORT BRIDGER   FAIR      43  18  36 W15       30.15S
ROCK SPRINGS   MOCLDY    38  19  46 W12       30.12S WCI  30
DIXON          FAIR      40  19  41 W5        30.18F
RAWLINS        PTCLDY    41  18  39 VRB5      30.08F
SARATOGA       FAIR      36  21  55 S7        30.13F WCI  30
LARAMIE        PTCLDY    38  18  44 S14       30.10F WCI  30
CHEYENNE       MOCLDY    50  16  25 SW8       30.02R
TORRINGTON     CLEAR     51  22  31 W7        29.89S
PINE BLUFFS    FAIR      43  21  42 SW9       29.99S

$$


USA.gov is the U.S. government's official web portal to all federal, state and local government web resources and services.